Weather History for Crescent City, CA

Change the Weather History Date:

Wednesday, December 11, 2013

  Actual Average Record
Temperature  
Mean Temperature 46 °F 47 °F  
Max Temperature 57 °F 54 °F 72 °F (1951)
Min Temperature 34 °F 41 °F 23 °F (1972)
Degree Days  
Heating Degree Days 19 18  
Month to date heating degree days 259 192  
Since 1 July heating degree days 1851 1809  
Cooling Degree Days 0 0  
Month to date cooling degree days 0 0  
Year to date cooling degree days 4 0  
Moisture  
Dew Point 34 °F    
Average Humidity 69    
Maximum Humidity 93    
Minimum Humidity 45    
Precipitation  
Precipitation 0.00 in 0.32 in 3.66 in (1956)
Month to date precipitation 1.25 3.25  
Year to date precipitation 28.86 56.01  
Since 1 July precipitation 8.93 19.08  
Snow  
Snow 0.00 in - - ()
Month to date snowfall 0.0  
Since 1 July snowfall 0.0  
Snow Depth 0.00 in    
Sea Level Pressure  
Sea Level Pressure 30.23 in    
Wind  
Wind Speed 5 mph (East)    
Max Wind Speed 8 mph    
Max Gust Speed 10 mph    
Visibility 10 miles    
Events      
T = Trace of Precipitation, MM = Missing Value Source: NWS Daily Summary

Daily Weather History Graph

Daily Weather History Graph

Search for Another Location

Airport:

Trip Planner

Search our weather history database for the weather conditions in past years. The results will help you decide how hot, cold, wet, or windy it might be!

Date:

Astronomy

Dec. 11, 2013 Rise Set
Actual Time 7:34 AM PST 4:46 PM PST
Civil Twilight 7:03 AM PST 5:17 PM PST
Nautical Twilight 6:28 AM PST 5:52 PM PST
Astronomical Twilight 5:54 AM PST 6:26 PM PST
Moon 1:26 PM PST (12/11) 1:57 AM PST (12/11)
Length of Visible Light 10h 14m
Length of Day
9h 11m
Waxing Gibbous, 72% of the Moon is Illuminated
Dec 11
Waxing Gibbous
Dec 17
Full
Dec 25
Last Quarter
Jan 1
New
Jan 7
First Quarter

Hourly Weather History & Observations

Time (PST) Temp. Windchill Dew Point Humidity Pressure Visibility Wind Dir Wind Speed Gust Speed Precip Events Conditions
12:56 AM 42.1 °F 39.2 °F 28.9 °F 60% 30.26 in 10.0 mi ENE 4.6 mph - N/A   Clear
1:56 AM 36.0 °F - 28.0 °F 73% 30.25 in 10.0 mi Calm Calm - N/A   Clear
2:56 AM 43.0 °F 40.3 °F 28.9 °F 58% 30.24 in 10.0 mi ENE 4.6 mph - N/A   Clear
3:56 AM 45.0 °F 41.2 °F 28.0 °F 52% 30.23 in 10.0 mi ENE 6.9 mph - N/A   Clear
4:56 AM 41.0 °F 39.0 °F 28.9 °F 62% 30.23 in 10.0 mi East 3.5 mph - N/A   Clear
5:56 AM 37.9 °F 33.5 °F 28.9 °F 70% 30.24 in 10.0 mi ESE 5.8 mph - N/A   Clear
6:56 AM 39.9 °F 35.8 °F 28.9 °F 65% 30.25 in 10.0 mi East 5.8 mph - N/A   Clear
7:56 AM 37.0 °F 34.5 °F 28.0 °F 70% 30.25 in 10.0 mi NE 3.5 mph - N/A   Clear
8:56 AM 45.0 °F 42.6 °F 30.9 °F 58% 30.25 in 10.0 mi East 4.6 mph - N/A   Clear
9:56 AM 50.0 °F - 32.0 °F 50% 30.25 in 10.0 mi ESE 4.6 mph - N/A   Clear
10:56 AM 54.0 °F - 32.0 °F 43% 30.25 in 10.0 mi ESE 5.8 mph - N/A   Clear
11:56 AM 52.0 °F - 37.0 °F 57% 30.23 in 10.0 mi South 6.9 mph - N/A   Clear
12:56 PM 51.1 °F - 39.9 °F 66% 30.22 in 10.0 mi NW 5.8 mph - N/A   Clear
1:56 PM 51.1 °F - 39.0 °F 63% 30.22 in 10.0 mi NW 4.6 mph - N/A   Clear
2:56 PM 51.1 °F - 37.9 °F 61% 30.21 in 10.0 mi NW 3.5 mph - N/A   Clear
3:56 PM 48.9 °F - 39.9 °F 71% 30.21 in 10.0 mi North 3.5 mph - N/A   Clear
4:56 PM 46.0 °F 44.8 °F 37.0 °F 71% 30.21 in 10.0 mi ESE 3.5 mph - N/A   Clear
5:56 PM 43.0 °F 41.3 °F 39.9 °F 89% 30.22 in 10.0 mi ESE 3.5 mph - N/A   Clear
6:56 PM 41.0 °F 37.1 °F 39.0 °F 93% 30.22 in 10.0 mi ESE 5.8 mph - N/A   Clear
7:56 PM 42.1 °F - 37.9 °F 85% 30.22 in 10.0 mi Calm Calm - N/A   Clear
8:56 PM 37.9 °F 34.4 °F 34.0 °F 86% 30.22 in 10.0 mi East 4.6 mph - N/A   Clear
9:56 PM 37.0 °F 33.3 °F 33.1 °F 86% 30.22 in 10.0 mi ESE 4.6 mph - N/A   Clear
10:56 PM 41.0 °F 36.4 °F 34.0 °F 76% 30.21 in 10.0 mi East 6.9 mph - N/A   Clear
11:56 PM 39.0 °F 34.0 °F 33.1 °F 79% 30.21 in 10.0 mi East 6.9 mph - N/A   Clear